Marshall, MN

4:22 PM CST on January 20, 2017 (GMT -0600)
Marshall Municipal-Ryan

Weather History for KMML - September, 2013

Change the Weather History Date:

Monday, September 30, 2013

  Actual Average Record
Temperature  
Mean Temperature 71 °F -  
Max Temperature 82 °F 69 °F 90 °F (1952)
Min Temperature 60 °F 44 °F 27 °F (1974)
Cooling Degree Days 6    
Growing Degree Days 21 (Base 50)    
Moisture  
Dew Point 46 °F    
Average Humidity 42    
Maximum Humidity 52    
Minimum Humidity 28    
Precipitation  
Precipitation 0.00 in - - ()
Sea Level Pressure  
Sea Level Pressure 29.60 in    
Wind  
Wind Speed 19 mph (SSW)    
Max Wind Speed 29 mph    
Max Gust Speed 37 mph    
Visibility 10 miles    
Events      
Averages and records for this station are not official NWS values.
T = Trace of Precipitation, MM = Missing Value Source: NWS Daily Summary

Daily Weather History Graph

Daily Weather History Graph

Search for Another Location

Airport or City:

Trip Planner

Search our weather history database for the weather conditions in past years. The results will help you decide how hot, cold, wet, or windy it might be!

Date:

Astronomy

Sep. 30, 2013 Rise Set
Actual Time 7:20 AM CDT 7:05 PM CDT
Civil Twilight 6:51 AM CDT 7:34 PM CDT
Nautical Twilight 6:17 AM CDT 8:07 PM CDT
Astronomical Twilight 5:43 AM CDT 8:42 PM CDT
Moon 2:49 AM CDT (9/30) 4:44 PM CDT (9/30)
Length of Visible Light 12h 42m
Length of Day
11h 45m
Waning Crescent, 19% of the Moon is Illuminated
Sep 30
Waning Crescent
Oct 4
New
Oct 11
First Quarter
Oct 18
Full
Oct 26
Last Quarter

Hourly Weather History & Observations

Time (CDT) Temp. Dew Point Humidity Pressure Visibility Wind Dir Wind Speed Gust Speed Precip Events Conditions
12:15 AM 66.2 °F 42.8 °F 43% 29.68 in 10.0 mi SSW 23.0 mph 32.2 mph N/A   Clear
12:35 AM 66.2 °F 42.8 °F 43% 29.68 in 10.0 mi SSW 25.3 mph 32.2 mph N/A   Clear
12:55 AM 66.2 °F 42.8 °F 43% 29.67 in 10.0 mi SSW 26.5 mph 33.4 mph N/A   Clear
1:15 AM 66.2 °F 42.8 °F 43% 29.66 in 10.0 mi SSW 24.2 mph 35.7 mph N/A   Clear
1:35 AM 66.2 °F 42.8 °F 43% 29.65 in 10.0 mi SSW 23.0 mph 34.5 mph N/A   Clear
1:55 AM 66.2 °F 42.8 °F 43% 29.66 in 10.0 mi SSW 24.2 mph 33.4 mph N/A   Clear
2:15 AM 66.2 °F 41.0 °F 40% 29.66 in 10.0 mi SSW 20.7 mph 32.2 mph N/A   Clear
2:35 AM 64.4 °F 41.0 °F 42% 29.65 in 10.0 mi SSW 25.3 mph 28.8 mph N/A   Clear
2:55 AM 64.4 °F 41.0 °F 42% 29.64 in 10.0 mi SSW 28.8 mph 34.5 mph N/A   Clear
3:15 AM 64.4 °F 41.0 °F 42% 29.63 in 10.0 mi SW 23.0 mph 32.2 mph N/A   Clear
3:35 AM 62.6 °F 41.0 °F 45% 29.62 in 10.0 mi SW 27.6 mph 34.5 mph N/A   Clear
3:55 AM 62.6 °F 41.0 °F 45% 29.62 in 10.0 mi SW 26.5 mph 36.8 mph N/A   Clear
4:15 AM 62.6 °F 41.0 °F 45% 29.61 in 10.0 mi SW 24.2 mph 33.4 mph N/A   Clear
4:35 AM 62.6 °F 41.0 °F 45% 29.62 in 10.0 mi SW 20.7 mph 33.4 mph N/A   Clear
4:55 AM 62.6 °F 41.0 °F 45% 29.62 in 10.0 mi SW 21.9 mph 29.9 mph N/A   Clear
5:15 AM 62.6 °F 41.0 °F 45% 29.62 in 10.0 mi SW 23.0 mph 28.8 mph N/A   Clear
5:35 AM 60.8 °F 41.0 °F 48% 29.62 in 10.0 mi SSW 19.6 mph 29.9 mph N/A   Clear
5:55 AM 60.8 °F 42.8 °F 52% 29.61 in 10.0 mi SW 20.7 mph 28.8 mph N/A   Clear
6:15 AM 60.8 °F 42.8 °F 52% 29.61 in 10.0 mi SW 21.9 mph 27.6 mph N/A   Clear
6:35 AM 60.8 °F 42.8 °F 52% 29.60 in 10.0 mi SW 21.9 mph 28.8 mph N/A   Clear
6:55 AM 60.8 °F 42.8 °F 52% 29.60 in 10.0 mi SW 21.9 mph 29.9 mph N/A   Clear
7:15 AM 60.8 °F 42.8 °F 52% 29.60 in 10.0 mi SW 20.7 mph 26.5 mph N/A   Clear
7:35 AM 60.8 °F 42.8 °F 52% 29.60 in 10.0 mi SW 23.0 mph 27.6 mph N/A   Clear
7:55 AM 60.8 °F 42.8 °F 52% 29.60 in 10.0 mi SW 20.7 mph 31.1 mph N/A   Clear
8:15 AM 60.8 °F 42.8 °F 52% 29.61 in 10.0 mi SW 21.9 mph 29.9 mph N/A   Clear
8:35 AM 60.8 °F 42.8 °F 52% 29.61 in 10.0 mi SW 19.6 mph 25.3 mph N/A   Clear
8:55 AM 60.8 °F 42.8 °F 52% 29.60 in 10.0 mi SW 17.3 mph 27.6 mph N/A   Clear
9:15 AM 62.6 °F 44.6 °F 52% 29.60 in 10.0 mi SW 21.9 mph 27.6 mph N/A   Clear
9:35 AM 62.6 °F 44.6 °F 52% 29.60 in 7.0 mi SW 20.7 mph 26.5 mph N/A   Clear
9:55 AM 64.4 °F 44.6 °F 49% 29.60 in 10.0 mi SW 18.4 mph 26.5 mph N/A   Clear
10:15 AM 64.4 °F 44.6 °F 49% 29.60 in 10.0 mi SW 20.7 mph 27.6 mph N/A   Clear
10:35 AM 66.2 °F 46.4 °F 49% 29.62 in 10.0 mi WSW 10.4 mph 17.3 mph N/A   Clear
10:55 AM 68.0 °F 46.4 °F 46% 29.63 in 10.0 mi SW 6.9 mph - N/A   Clear
11:15 AM 69.8 °F 46.4 °F 43% 29.62 in 10.0 mi SW 13.8 mph - N/A   Clear
11:35 AM 71.6 °F 48.2 °F 43% 29.63 in 10.0 mi SW 11.5 mph - N/A   Clear
11:55 AM 73.4 °F 48.2 °F 41% 29.62 in 10.0 mi SW 8.1 mph - N/A   Clear
12:15 PM 73.4 °F 48.2 °F 41% 29.61 in 10.0 mi SW 9.2 mph - N/A   Clear
12:35 PM 75.2 °F 48.2 °F 38% 29.61 in 10.0 mi SW 11.5 mph - N/A   Clear
12:55 PM 77.0 °F 48.2 °F 36% 29.61 in 10.0 mi SW 10.4 mph - N/A   Clear
1:15 PM 77.0 °F 48.2 °F 36% 29.60 in 9.0 mi South 11.5 mph 16.1 mph N/A   Clear
1:35 PM 78.8 °F 48.2 °F 34% 29.59 in 10.0 mi SSW 11.5 mph 17.3 mph N/A   Clear
1:55 PM 78.8 °F 48.2 °F 34% 29.58 in 10.0 mi South 11.5 mph 18.4 mph N/A   Clear
2:15 PM 80.6 °F 48.2 °F 32% 29.58 in 10.0 mi SSW 10.4 mph - N/A   Clear
2:35 PM 80.6 °F 48.2 °F 32% 29.57 in 10.0 mi SSW 16.1 mph 20.7 mph N/A   Clear
2:55 PM 80.6 °F 48.2 °F 32% 29.57 in 10.0 mi SSW 11.5 mph 17.3 mph N/A   Clear
3:15 PM 82.4 °F 48.2 °F 30% 29.57 in 10.0 mi SSW 11.5 mph - N/A   Clear
3:35 PM 82.4 °F 48.2 °F 30% 29.56 in 10.0 mi SW 16.1 mph - N/A   Clear
3:55 PM 82.4 °F 48.2 °F 30% 29.56 in 10.0 mi SW 16.1 mph - N/A   Clear
4:15 PM 82.4 °F 48.2 °F 30% 29.56 in 10.0 mi SSW 16.1 mph - N/A   Clear
4:35 PM 82.4 °F 48.2 °F 30% 29.55 in 10.0 mi SW 16.1 mph - N/A   Clear
4:55 PM 82.4 °F 46.4 °F 28% 29.56 in 10.0 mi SSW 19.6 mph 24.2 mph N/A   Clear
5:15 PM 82.4 °F 48.2 °F 30% 29.55 in 10.0 mi SW 12.7 mph 18.4 mph N/A   Clear
5:35 PM 80.6 °F 46.4 °F 30% 29.56 in 10.0 mi SW 13.8 mph 21.9 mph N/A   Clear
5:55 PM 80.6 °F 48.2 °F 32% 29.56 in 10.0 mi SW 8.1 mph - N/A   Clear
6:15 PM 80.6 °F 48.2 °F 32% 29.56 in 10.0 mi SSW 8.1 mph - N/A   Clear
6:35 PM 78.8 °F 48.2 °F 34% 29.56 in 9.0 mi SSW 8.1 mph - N/A   Clear
6:55 PM 75.2 °F 48.2 °F 38% 29.57 in 10.0 mi South 6.9 mph - N/A   Clear
7:15 PM 73.4 °F 48.2 °F 41% 29.57 in 10.0 mi South 5.8 mph - N/A   Clear
7:35 PM 71.6 °F 48.2 °F 43% 29.57 in 10.0 mi South 6.9 mph - N/A   Clear
7:55 PM 69.8 °F 48.2 °F 46% 29.57 in 10.0 mi South 5.8 mph - N/A   Clear
8:15 PM 69.8 °F 48.2 °F 46% 29.57 in 10.0 mi South 6.9 mph - N/A   Clear
8:35 PM 66.2 °F 48.2 °F 52% 29.57 in 10.0 mi South 6.9 mph - N/A   Clear
8:55 PM 68.0 °F 48.2 °F 49% 29.58 in 10.0 mi South 11.5 mph - N/A   Clear
9:15 PM 69.8 °F 48.2 °F 46% 29.57 in 10.0 mi SSW 12.7 mph - N/A   Clear
9:35 PM 71.6 °F 48.2 °F 43% 29.57 in 10.0 mi SSW 16.1 mph 20.7 mph N/A   Clear
9:55 PM 71.6 °F 48.2 °F 43% 29.57 in 10.0 mi SSW 12.7 mph - N/A   Clear
10:15 PM 71.6 °F 48.2 °F 43% 29.57 in 10.0 mi SSW 15.0 mph - N/A   Clear
10:35 PM 71.6 °F 48.2 °F 43% 29.56 in 10.0 mi South 16.1 mph - N/A   Clear
10:55 PM 71.6 °F 48.2 °F 43% 29.55 in 10.0 mi SSW 18.4 mph 23.0 mph N/A   Clear
11:15 PM 71.6 °F 48.2 °F 43% 29.55 in 10.0 mi SSW 20.7 mph 25.3 mph N/A   Clear
11:35 PM 71.6 °F 48.2 °F 43% 29.55 in 10.0 mi SSW 20.7 mph 28.8 mph N/A   Clear
11:55 PM 71.6 °F 48.2 °F 43% 29.54 in 10.0 mi SSW 21.9 mph 29.9 mph N/A   Clear